| time (UTC) | temp C | wind direction | speed KPH | gust KPH | rain 1hr cm | rain 24hr cm | rain mn cm | humidity % | barometer mb |
| 20260505073040 | 20 | 221 | 9.7 | 24.1 | 0.00 | 0.03 | 0.03 | 60 | 1008.4 |
| 20260505072528 | 19 | 229 | 11.3 | 24.1 | 0.00 | 0.03 | 0.03 | 60 | 1008.5 |
| 20260505072029 | 19 | 235 | 9.7 | 20.9 | 0.00 | 0.03 | 0.03 | 60 | 1008.5 |
| 20260505071541 | 19 | 225 | 8.0 | 19.3 | 0.00 | 0.03 | 0.03 | 60 | 1008.4 |
| 20260505071029 | 19 | 217 | 12.9 | 19.3 | 0.00 | 0.03 | 0.03 | 60 | 1008.5 |
| 20260505070533 | 19 | 205 | 9.7 | 20.9 | 0.00 | 0.03 | 0.03 | 60 | 1008.4 |
| 20260505070039 | 19 | 221 | 12.9 | 20.9 | 0.00 | 0.03 | 0.03 | 60 | 1008.5 |
| 20260505065528 | 20 | 213 | 9.7 | 22.5 | 0.00 | 0.03 | 0.03 | 60 | 1008.4 |
| 20260505065025 | 20 | 216 | 12.9 | 22.5 | 0.00 | 0.03 | 0.03 | 60 | 1008.4 |
| 20260505064525 | 20 | 226 | 9.7 | 19.3 | 0.00 | 0.03 | 0.03 | 60 | 1008.4 |
| 20260505064028 | 20 | 184 | 11.3 | 22.5 | 0.00 | 0.03 | 0.03 | 60 | 1008.5 |
| 20260505063525 | 20 | 209 | 12.9 | 20.9 | 0.00 | 0.03 | 0.03 | 59 | 1008.4 |
| 20260505063035 | 20 | 219 | 11.3 | 19.3 | 0.00 | 0.03 | 0.03 | 59 | 1008.5 |
| 20260505062525 | 20 | 207 | 9.7 | 19.3 | 0.00 | 0.03 | 0.03 | 59 | 1008.6 |
| 20260505062025 | 20 | 236 | 11.3 | 19.3 | 0.00 | 0.03 | 0.03 | 59 | 1008.6 |
| 20260505061529 | 20 | 209 | 8.0 | 19.3 | 0.00 | 0.03 | 0.03 | 59 | 1008.6 |
| 20260505061024 | 20 | 215 | 11.3 | 22.5 | 0.00 | 0.03 | 0.03 | 58 | 1008.7 |
| 20260505060524 | 20 | 239 | 11.3 | 22.5 | 0.00 | 0.03 | 0.03 | 58 | 1008.7 |
| 20260505060049 | 20 | 202 | 11.3 | 20.9 | 0.00 | 0.03 | 0.03 | 58 | 1008.7 |
| 20260505055527 | 20 | 213 | 9.7 | 19.3 | 0.00 | 0.03 | 0.03 | 58 | 1008.8 |
| 20260505055022 | 20 | 247 | 11.3 | 20.9 | 0.00 | 0.03 | 0.03 | 58 | 1008.8 |
| 20260505054522 | 20 | 238 | 12.9 | 20.9 | 0.00 | 0.03 | 0.03 | 58 | 1008.7 |
| 20260505054021 | 20 | 222 | 9.7 | 20.9 | 0.00 | 0.03 | 0.03 | 58 | 1008.8 |
| 20260505053522 | 20 | 209 | 9.7 | 20.9 | 0.00 | 0.03 | 0.03 | 57 | 1008.7 |
| 20260505053021 | 20 | 212 | 8.0 | 20.9 | 0.00 | 0.03 | 0.03 | 57 | 1008.6 |
| 20260505052521 | 20 | 219 | 9.7 | 20.9 | 0.00 | 0.03 | 0.03 | 57 | 1008.6 |
| 20260505052021 | 20 | 211 | 6.4 | 20.9 | 0.00 | 0.03 | 0.03 | 57 | 1008.6 |
| 20260505051521 | 20 | 253 | 11.3 | 20.9 | 0.00 | 0.03 | 0.03 | 57 | 1008.6 |
| 20260505051021 | 20 | 232 | 11.3 | 20.9 | 0.00 | 0.03 | 0.03 | 57 | 1008.6 |
| 20260505050520 | 20 | 221 | 8.0 | 16.1 | 0.00 | 0.03 | 0.03 | 57 | 1008.5 |
| 20260505041516 | 20 | 224 | 8.0 | 12.9 | 0.00 | 0.03 | 0.03 | 56 | 1008.0 |
| 20260505041018 | 20 | 219 | 8.0 | 12.9 | 0.00 | 0.03 | 0.03 | 56 | 1008.0 |
| 20260505040521 | 20 | 214 | 4.8 | 12.9 | 0.00 | 0.03 | 0.03 | 55 | 1008.0 |
| 20260505040022 | 20 | 221 | 4.8 | 12.9 | 0.00 | 0.03 | 0.03 | 55 | 1007.9 |
| 20260505035516 | 20 | 213 | 6.4 | 12.9 | 0.00 | 0.03 | 0.03 | 55 | 1007.8 |
| 20260505035016 | 20 | 181 | 4.8 | 14.5 | 0.00 | 0.03 | 0.03 | 55 | 1007.8 |
| 20260505034514 | 20 | 215 | 6.4 | 14.5 | 0.00 | 0.03 | 0.03 | 55 | 1007.8 |
| 20260505034017 | 21 | 201 | 8.0 | 14.5 | 0.00 | 0.03 | 0.03 | 55 | 1007.8 |
| 20260505033514 | 21 | 213 | 4.8 | 14.5 | 0.00 | 0.03 | 0.03 | 55 | 1007.9 |
| 20260505033015 | 21 | 238 | 4.8 | 12.9 | 0.00 | 0.03 | 0.03 | 55 | 1007.8 |
| 20260505032514 | 21 | 219 | 6.4 | 12.9 | 0.00 | 0.03 | 0.03 | 55 | 1007.7 |
| 20260505032016 | 21 | 203 | 4.8 | 19.3 | 0.00 | 0.03 | 0.03 | 55 | 1007.7 |
| 20260505031513 | 21 | 226 | 6.4 | 19.3 | 0.00 | 0.03 | 0.03 | 55 | 1007.7 |
| 20260505031014 | 21 | 207 | 8.0 | 12.9 | 0.00 | 0.03 | 0.03 | 55 | 1007.7 |
| 20260505030513 | 21 | 213 | 8.0 | 12.9 | 0.00 | 0.03 | 0.03 | 55 | 1007.6 |
| 20260505030013 | 21 | 219 | 4.8 | 19.3 | 0.00 | 0.03 | 0.03 | 55 | 1007.7 |
| 20260505025515 | 21 | 200 | 4.8 | 19.3 | 0.00 | 0.03 | 0.03 | 55 | 1007.7 |
| 20260505025012 | 21 | 210 | 4.8 | 12.9 | 0.00 | 0.03 | 0.03 | 55 | 1007.7 |
| 20260505024511 | 21 | 204 | 3.2 | 14.5 | 0.00 | 0.03 | 0.03 | 56 | 1007.7 |
| 20260505024010 | 21 | 219 | 6.4 | 12.9 | 0.00 | 0.03 | 0.03 | 55 | 1007.7 |
| 20260505023510 | 21 | 185 | 6.4 | 12.9 | 0.00 | 0.03 | 0.03 | 55 | 1007.7 |
| 20260505023010 | 21 | 216 | 4.8 | 16.1 | 0.00 | 0.03 | 0.03 | 55 | 1007.7 |
| 20260505022510 | 21 | 236 | 6.4 | 16.1 | 0.00 | 0.03 | 0.03 | 55 | 1007.7 |
| 20260505022010 | 21 | 185 | 8.0 | 16.1 | 0.00 | 0.03 | 0.03 | 55 | 1007.6 |
| 20260505021510 | 21 | 190 | 6.4 | 12.9 | 0.00 | 0.03 | 0.03 | 55 | 1007.6 |
| 20260505021010 | 21 | 224 | 8.0 | 12.9 | 0.00 | 0.03 | 0.03 | 55 | 1007.5 |
| 20260505020509 | 21 | 188 | 3.2 | 12.9 | 0.00 | 0.03 | 0.03 | 55 | 1007.5 |
| 20260505020009 | 21 | 192 | 6.4 | 12.9 | 0.00 | 0.03 | 0.03 | 55 | 1007.5 |
| 20260505015509 | 21 | 204 | 4.8 | 11.3 | 0.00 | 0.03 | 0.03 | 55 | 1007.5 |
| 20260505015009 | 22 | 202 | 3.2 | 11.3 | 0.00 | 0.03 | 0.03 | 55 | 1007.5 |
| 20260505014559 | 22 | 195 | 4.8 | 11.3 | 0.00 | 0.03 | 0.03 | 54 | 1007.5 |
| 20260505014038 | 22 | 223 | 1.6 | 12.9 | 0.00 | 0.03 | 0.03 | 54 | 1007.4 |
| 20260505013538 | 22 | 218 | 4.8 | 12.9 | 0.00 | 0.03 | 0.03 | 54 | 1007.3 |
| 20260505013048 | 22 | 212 | 6.4 | 11.3 | 0.00 | 0.03 | 0.03 | 54 | 1007.3 |
| 20260505012539 | 22 | 209 | 3.2 | 9.7 | 0.00 | 0.03 | 0.03 | 54 | 1007.3 |
| 20260505012038 | 22 | 202 | 1.6 | 9.7 | 0.00 | 0.03 | 0.03 | 54 | 1007.2 |
| 20260505011540 | 22 | 209 | 1.6 | 8.0 | 0.00 | 0.03 | 0.03 | 54 | 1007.2 |
| 20260505011038 | 22 | 200 | 1.6 | 6.4 | 0.00 | 0.03 | 0.03 | 53 | 1007.3 |
| 20260505010535 | 22 | 196 | 1.6 | 12.9 | 0.00 | 0.03 | 0.03 | 53 | 1007.3 |
| 20260505010043 | 22 | 195 | 1.6 | 12.9 | 0.00 | 0.03 | 0.03 | 53 | 1007.3 |
| 20260505005537 | 22 | 205 | 1.6 | 8.0 | 0.00 | 0.03 | 0.03 | 52 | 1007.3 |
| 20260505005035 | 23 | 212 | 1.6 | 8.0 | 0.00 | 0.03 | 0.03 | 52 | 1007.4 |
| 20260505004546 | 23 | 217 | 1.6 | 8.0 | 0.00 | 0.03 | 0.03 | 51 | 1007.3 |
| 20260505004034 | 23 | 205 | 3.2 | 12.9 | 0.00 | 0.03 | 0.03 | 51 | 1007.3 |
| 20260505003534 | 23 | 211 | 3.2 | 12.9 | 0.00 | 0.03 | 0.03 | 51 | 1007.3 |
| 20260505003051 | 23 | 217 | 1.6 | 11.3 | 0.00 | 0.03 | 0.03 | 50 | 1007.3 |
| 20260505002534 | 23 | 225 | 6.4 | 11.3 | 0.00 | 0.03 | 0.03 | 50 | 1007.3 |
| 20260505002034 | 23 | 209 | 4.8 | 9.7 | 0.00 | 0.03 | 0.03 | 49 | 1007.2 |
| 20260505001534 | 24 | 219 | 3.2 | 14.5 | 0.00 | 0.03 | 0.03 | 49 | 1007.2 |
| 20260505001008 | 24 | 219 | 8.0 | 14.5 | 0.00 | 0.03 | 0.03 | 49 | 1007.1 |
| 20260505000506 | 24 | 223 | 8.0 | 12.9 | 0.00 | 0.03 | 0.03 | 48 | 1007.2 |
| 20260505000010 | 24 | 219 | 6.4 | 14.5 | 0.00 | 0.03 | 0.03 | 48 | 1007.1 |
| 20260504235503 | 24 | 233 | 9.7 | 16.1 | 0.00 | 0.03 | 0.03 | 48 | 1007.2 |
| 20260504235002 | 24 | 223 | 9.7 | 17.7 | 0.00 | 0.03 | 0.03 | 48 | 1007.3 |
| 20260504234502 | 24 | 269 | 11.3 | 17.7 | 0.00 | 0.03 | 0.03 | 47 | 1007.3 |
| 20260504234100 | 24 | 237 | 8.0 | 12.9 | 0.00 | 0.03 | 0.03 | 47 | 1007.4 |
| 20260504233601 | 25 | 212 | 8.0 | 22.5 | 0.00 | 0.03 | 0.03 | 47 | 1007.3 |
| 20260504233103 | 25 | 215 | 12.9 | 22.5 | 0.00 | 0.03 | 0.03 | 46 | 1007.3 |
| 20260504232604 | 25 | 231 | 12.9 | 20.9 | 0.00 | 0.03 | 0.03 | 46 | 1007.3 |
| 20260504232101 | 25 | 220 | 11.3 | 25.7 | 0.00 | 0.03 | 0.03 | 46 | 1007.3 |
| 20260504231559 | 25 | 218 | 14.5 | 22.5 | 0.00 | 0.03 | 0.03 | 45 | 1007.3 |
| 20260504231059 | 25 | 275 | 9.7 | 19.3 | 0.00 | 0.03 | 0.03 | 45 | 1007.3 |
| 20260504230602 | 25 | 227 | 8.0 | 22.5 | 0.00 | 0.03 | 0.03 | 45 | 1007.3 |
| 20260504230100 | 25 | 239 | 14.5 | 24.1 | 0.00 | 0.03 | 0.03 | 44 | 1007.3 |
| 20260504225601 | 26 | 230 | 14.5 | 22.5 | 0.00 | 0.03 | 0.03 | 43 | 1007.2 |
| 20260504225059 | 26 | 228 | 9.7 | 25.7 | 0.00 | 0.03 | 0.03 | 44 | 1007.3 |
| 20260504224558 | 26 | 252 | 11.3 | 25.7 | 0.00 | 0.03 | 0.03 | 44 | 1007.3 |
| 20260504224058 | 26 | 234 | 9.7 | 20.9 | 0.00 | 0.03 | 0.03 | 45 | 1007.3 |
| 20260504223559 | 25 | 215 | 11.3 | 17.7 | 0.00 | 0.03 | 0.03 | 46 | 1007.4 |
| 20260504223110 | 25 | 224 | 8.0 | 14.5 | 0.00 | 0.03 | 0.03 | 47 | 1007.4 |
| 20260504222554 | 25 | 248 | 8.0 | 14.5 | 0.00 | 0.03 | 0.03 | 47 | 1007.3 |
| 20260504222053 | 25 | 225 | 6.4 | 12.9 | 0.00 | 0.03 | 0.03 | 47 | 1007.5 |
| 20260504221553 | 25 | 214 | 6.4 | 16.1 | 0.00 | 0.03 | 0.03 | 47 | 1007.6 |
| 20260504221052 | 26 | 203 | 9.7 | 16.1 | 0.00 | 0.03 | 0.03 | 46 | 1007.6 |
| 20260504220551 | 25 | 219 | 4.8 | 19.3 | 0.00 | 0.03 | 0.03 | 47 | 1007.6 |
| 20260504220052 | 25 | 248 | 9.7 | 20.9 | 0.00 | 0.03 | 0.03 | 47 | 1007.7 |
| 20260504215555 | 25 | 226 | 9.7 | 20.9 | 0.00 | 0.03 | 0.03 | 47 | 1007.7 |
| 20260504215050 | 25 | 224 | 9.7 | 20.9 | 0.00 | 0.03 | 0.03 | 48 | 1007.7 |
| 20260504214551 | 25 | 225 | 8.0 | 22.5 | 0.00 | 0.03 | 0.03 | 47 | 1007.7 |
| 20260504214025 | 25 | 274 | 12.9 | 20.9 | 0.00 | 0.03 | 0.03 | 47 | 1007.7 |
| 20260504213520 | 26 | 223 | 11.3 | 20.9 | 0.00 | 0.03 | 0.03 | 47 | 1007.7 |
| 20260504213025 | 26 | 245 | 9.7 | 20.9 | 0.00 | 0.03 | 0.03 | 48 | 1007.8 |
| 20260504212519 | 25 | 223 | 11.3 | 20.9 | 0.00 | 0.03 | 0.03 | 48 | 1007.7 |
| 20260504212018 | 25 | 234 | 9.7 | 17.7 | 0.00 | 0.03 | 0.03 | 48 | 1007.9 |
| 20260504211529 | 26 | 254 | 8.0 | 20.9 | 0.00 | 0.03 | 0.03 | 49 | 1007.9 |
| 20260504211015 | 26 | 210 | 11.3 | 22.5 | 0.00 | 0.03 | 0.03 | 49 | 1008.0 |
| 20260504210515 | 25 | 202 | 8.0 | 22.5 | 0.00 | 0.03 | 0.03 | 50 | 1008.1 |
| 20260504210015 | 25 | 225 | 9.7 | 22.5 | 0.00 | 0.03 | 0.03 | 51 | 1008.2 |
| 20260504205513 | 25 | 226 | 12.9 | 20.9 | 0.00 | 0.03 | 0.03 | 50 | 1008.2 |
| 20260504205012 | 25 | 189 | 11.3 | 29.0 | 0.00 | 0.03 | 0.03 | 50 | 1008.2 |
| 20260504204518 | 25 | 194 | 12.9 | 24.1 | 0.00 | 0.03 | 0.03 | 49 | 1008.3 |
| 20260504204011 | 25 | 197 | 11.3 | 20.9 | 0.00 | 0.03 | 0.03 | 49 | 1008.3 |
| 20260504203511 | 26 | 217 | 9.7 | 20.9 | 0.00 | 0.03 | 0.03 | 49 | 1008.4 |
| 20260504203010 | 25 | 237 | 9.7 | 20.9 | 0.00 | 0.03 | 0.03 | 51 | 1008.4 |
| 20260504202509 | 25 | 219 | 11.3 | 25.7 | 0.00 | 0.03 | 0.03 | 50 | 1008.5 |
| 20260504202009 | 25 | 294 | 6.4 | 24.1 | 0.00 | 0.03 | 0.03 | 51 | 1008.5 |
| 20260504201508 | 25 | 211 | 11.3 | 24.1 | 0.00 | 0.03 | 0.03 | 50 | 1008.6 |
| 20260504201004 | 25 | 234 | 4.8 | 25.7 | 0.00 | 0.03 | 0.03 | 52 | 1008.5 |
| 20260504200502 | 24 | 206 | 9.7 | 25.7 | 0.00 | 0.03 | 0.03 | 52 | 1008.7 |
| 20260504200005 | 24 | 221 | 9.7 | 22.5 | 0.00 | 0.03 | 0.03 | 53 | 1008.8 |
| 20260504195502 | 23 | 213 | 9.7 | 22.5 | 0.00 | 0.03 | 0.03 | 54 | 1008.8 |
| 20260504195100 | 23 | 223 | 12.9 | 22.5 | 0.00 | 0.03 | 0.03 | 52 | 1008.9 |
| 20260504195001 | 23 | 234 | 12.9 | 22.5 | 0.00 | 0.03 | 0.03 | 53 | 1008.9 |
| 20260504194605 | 23 | 236 | 9.7 | 30.6 | 0.00 | 0.03 | 0.03 | 54 | 1008.9 |
| 20260504194059 | 23 | 213 | 16.1 | 30.6 | 0.00 | 0.03 | 0.03 | 54 | 1009.0 |
| 20260504193557 | 22 | 210 | 14.5 | 25.7 | 0.00 | 0.03 | 0.03 | 54 | 1009.0 |
| 20260504193107 | 22 | 215 | 14.5 | 25.7 | 0.00 | 0.03 | 0.03 | 55 | 1009.2 |
| 20260504192556 | 22 | 215 | 14.5 | 25.7 | 0.00 | 0.03 | 0.03 | 54 | 1009.2 |
| 20260504192056 | 22 | 208 | 16.1 | 25.7 | 0.00 | 0.03 | 0.03 | 55 | 1009.3 |
| 20260504191610 | 22 | 219 | 12.9 | 24.1 | 0.00 | 0.03 | 0.03 | 55 | 1009.4 |
| 20260504191056 | 21 | 207 | 6.4 | 25.7 | 0.00 | 0.03 | 0.03 | 58 | 1009.4 |
| 20260504190554 | 21 | 236 | 14.5 | 25.7 | 0.00 | 0.03 | 0.03 | 56 | 1009.5 |
| 20260504190107 | 21 | 217 | 11.3 | 24.1 | 0.00 | 0.03 | 0.03 | 61 | 1009.4 |
| 20260504185554 | 20 | 227 | 11.3 | 24.1 | 0.00 | 0.03 | 0.03 | 63 | 1009.6 |
| 20260504185053 | 20 | 227 | 11.3 | 25.7 | 0.00 | 0.03 | 0.03 | 65 | 1009.7 |
| 20260504184555 | 19 | 216 | 11.3 | 20.9 | 0.00 | 0.03 | 0.03 | 67 | 1009.8 |
| 20260504184053 | 19 | 206 | 4.8 | 24.1 | 0.00 | 0.03 | 0.03 | 72 | 1010.0 |
| 20260504183555 | 18 | 217 | 11.3 | 24.1 | 0.00 | 0.03 | 0.03 | 67 | 1010.0 |
| 20260504183053 | 19 | 182 | 11.3 | 24.1 | 0.00 | 0.03 | 0.03 | 65 | 1009.4 |
| 20260504182552 | 20 | 258 | 9.7 | 24.1 | 0.00 | 0.03 | 0.03 | 62 | 1010.4 |
| 20260504182051 | 20 | 232 | 12.9 | 30.6 | 0.00 | 0.03 | 0.03 | 59 | 1010.9 |
| 20260504181559 | 20 | 235 | 19.3 | 30.6 | 0.00 | 0.03 | 0.03 | 57 | 1011.1 |
| 20260504181051 | 21 | 226 | 16.1 | 38.6 | 0.00 | 0.03 | 0.03 | 55 | 1010.9 |
| 20260504180552 | 21 | 202 | 17.7 | 38.6 | 0.00 | 0.03 | 0.03 | 54 | 1010.6 |
| 20260504180052 | 21 | 234 | 20.9 | 29.0 | 0.00 | 0.03 | 0.03 | 52 | 1010.4 |
| 20260504175548 | 22 | 218 | 14.5 | 25.7 | 0.00 | 0.03 | 0.03 | 52 | 1010.3 |
| 20260504175049 | 22 | 233 | 14.5 | 33.8 | 0.00 | 0.03 | 0.03 | 52 | 1010.1 |
| 20260504174549 | 22 | 216 | 14.5 | 37.0 | 0.00 | 0.03 | 0.03 | 51 | 1010.0 |
| 20260504174049 | 23 | 229 | 14.5 | 22.5 | 0.00 | 0.03 | 0.03 | 51 | 1009.9 |
| 20260504173548 | 23 | 248 | 6.4 | 22.5 | 0.00 | 0.03 | 0.03 | 52 | 1009.9 |
| 20260504173052 | 22 | 259 | 14.5 | 22.5 | 0.00 | 0.03 | 0.03 | 52 | 1009.8 |
| 20260504172545 | 22 | 219 | 6.4 | 20.9 | 0.00 | 0.03 | 0.03 | 53 | 1009.9 |
| 20260504172044 | 22 | 219 | 11.3 | 20.9 | 0.00 | 0.03 | 0.03 | 53 | 1010.0 |
| 20260504171543 | 21 | 234 | 6.4 | 17.7 | 0.00 | 0.03 | 0.03 | 56 | 1010.0 |
| 20260504171041 | 21 | 207 | 9.7 | 17.7 | 0.00 | 0.03 | 0.03 | 56 | 1010.0 |
| 20260504170536 | 20 | 258 | 8.0 | 20.9 | 0.00 | 0.03 | 0.03 | 59 | 1010.2 |
| 20260504151047 | 16 | 219 | 11.3 | 24.1 | 0.00 | 0.03 | 0.03 | 68 | 1011.8 |
| 20260504150544 | 16 | 225 | 9.7 | 24.1 | 0.00 | 0.03 | 0.03 | 69 | 1011.7 |
| 20260504141026 | 13 | 213 | 9.7 | 25.7 | 0.03 | 0.03 | 0.03 | 78 | 1012.5 |
| 20260504140526 | 13 | 219 | 11.3 | 24.1 | 0.03 | 0.03 | 0.03 | 78 | 1012.7 |
| 20260504130516 | 13 | 292 | 9.7 | 24.1 | 0.00 | 0.00 | 0.00 | 69 | 1013.1 |
| 20260504110552 | 12 | 227 | 3.2 | 11.3 | 0.00 | 0.00 | 0.00 | 62 | 1012.4 |
| 20260504100538 | 11 | 202 | 8.0 | 14.5 | 0.00 | 0.00 | 0.00 | 61 | 1012.4 |
| 20260504081526 | 11 | 177 | 0.0 | 3.2 | 0.00 | 0.00 | 0.00 | 61 | 1013.0 |
| 20260504081026 | 11 | 177 | 0.0 | 3.2 | 0.00 | 0.00 | 0.00 | 61 | 1012.9 |
| 20260504080524 | 11 | 173 | 0.0 | 3.2 | 0.00 | 0.00 | 0.00 | 61 | 1013.0 |